Portsmouth, NH

6:12 PM EDT on August 23, 2017 (GMT -0400)
Pease International Tradeport

Weather History for KPSM - March, 2013

Change the Weather History Date:

Sunday, March 17, 2013

  Actual Average Record
Temperature  
Mean Temperature 28 °F -  
Max Temperature 36 °F 39 °F 73 °F (1990)
Min Temperature 21 °F 24 °F 12 °F (2014)
Degree Days  
Heating Degree Days 37    
Moisture  
Dew Point 4 °F    
Average Humidity 38    
Maximum Humidity 62    
Minimum Humidity 22    
Precipitation  
Precipitation 0.00 in - - ()
Sea Level Pressure  
Sea Level Pressure 30.05 in    
Wind  
Wind Speed 8 mph (WNW)    
Max Wind Speed 25 mph    
Max Gust Speed 32 mph    
Visibility 10 miles    
Events      
Averages and records for this station are not official NWS values.
T = Trace of Precipitation, MM = Missing Value Source: NWS Daily Summary

Daily Weather History Graph

Daily Weather History Graph

Search for Another Location

Airport or City:

Trip Planner

Search our weather history database for the weather conditions in past years. The results will help you decide how hot, cold, wet, or windy it might be!

Date:

Astronomy

Mar. 17, 2013 Rise Set
Actual Time 6:51 AM EDT 6:52 PM EDT
Civil Twilight 6:23 AM EDT 7:20 PM EDT
Nautical Twilight 5:50 AM EDT 7:53 PM EDT
Astronomical Twilight 5:16 AM EDT 8:27 PM EDT
Moon 9:53 AM EDT (3/17) 12:05 AM EDT (3/17)
Length of Visible Light 12h 57m
Length of Day
12h 00m
Waxing Crescent, 31% of the Moon is Illuminated
Mar 17
Waxing Crescent
Mar 19
First Quarter
Mar 27
Full
Apr 3
Last Quarter
Apr 10
New

Hourly Weather History & Observations

Time (EDT) Temp. Windchill Dew Point Humidity Pressure Visibility Wind Dir Wind Speed Gust Speed Precip Events Conditions
12:55 AM 28.0 °F - 7.2 °F 41% 29.89 in 10.0 mi Calm Calm - N/A   Mostly Cloudy
1:55 AM 25.9 °F 21.7 °F 8.4 °F 48% 29.91 in 10.0 mi West 3.5 mph - N/A   Scattered Clouds
2:55 AM 22.6 °F 18.0 °F 10.2 °F 59% 29.90 in 10.0 mi WNW 3.5 mph - N/A   Mostly Cloudy
3:55 AM 23.9 °F 15.8 °F 10.4 °F 56% 29.91 in 10.0 mi NW 6.9 mph - N/A   Mostly Cloudy
4:55 AM 22.6 °F 15.3 °F 9.7 °F 58% 29.92 in 10.0 mi WNW 5.8 mph - N/A   Partly Cloudy
5:55 AM 22.1 °F 17.4 °F 10.8 °F 62% 29.94 in 10.0 mi West 3.5 mph - N/A   Scattered Clouds
6:55 AM 22.1 °F - 10.4 °F 61% 29.94 in 10.0 mi Calm Calm - N/A   Scattered Clouds
7:55 AM 23.2 °F 16.0 °F 12.0 °F 62% 29.99 in 10.0 mi West 5.8 mph - N/A   Partly Cloudy
8:55 AM 26.6 °F 18.2 °F 11.3 °F 53% 30.02 in 10.0 mi West 8.1 mph - N/A   Scattered Clouds
9:55 AM 30.6 °F 21.2 °F 5.0 °F 34% 30.00 in 10.0 mi WNW 11.5 mph - N/A   Partly Cloudy
10:55 AM 32.2 °F 21.8 °F 5.2 °F 32% 30.02 in 10.0 mi West 15.0 mph - N/A   Partly Cloudy
11:55 AM 34.2 °F 24.8 °F 6.3 °F 31% 30.03 in 10.0 mi West 13.8 mph 24.2 mph N/A   Mostly Cloudy
12:55 PM 33.8 °F 23.2 °F 2.5 °F 27% 30.03 in 10.0 mi WNW 17.3 mph 23.0 mph N/A   Mostly Cloudy
1:55 PM 34.3 °F 23.5 °F 0.7 °F 24% 30.03 in 10.0 mi WNW 18.4 mph 23.0 mph N/A   Mostly Cloudy
2:55 PM 34.0 °F 21.3 °F -1.5 °F 22% 30.04 in 10.0 mi NW 25.3 mph 32.2 mph N/A   Mostly Cloudy
3:55 PM 33.4 °F 22.0 °F -1.8 °F 22% 30.07 in 10.0 mi WNW 19.6 mph 28.8 mph N/A   Mostly Cloudy
4:55 PM 33.1 °F 22.6 °F -0.2 °F 24% 30.09 in 10.0 mi NW 16.1 mph 24.2 mph N/A   Scattered Clouds
5:55 PM 31.3 °F 19.2 °F -2.0 °F 24% 30.11 in 10.0 mi WNW 19.6 mph 28.8 mph N/A   Scattered Clouds
6:55 PM 28.2 °F 17.7 °F -0.0 °F 30% 30.15 in 10.0 mi NNW 12.7 mph - N/A   Partly Cloudy
7:55 PM 26.2 °F 14.2 °F -0.6 °F 31% 30.19 in 10.0 mi NW 15.0 mph - N/A   Clear
8:55 PM 25.3 °F 13.1 °F -3.8 °F 28% 30.24 in 10.0 mi NW 15.0 mph 24.2 mph N/A   Clear
9:55 PM 23.5 °F 14.5 °F -3.5 °F 31% 30.27 in 10.0 mi NW 8.1 mph - N/A   Clear
10:55 PM 22.8 °F 8.9 °F -4.0 °F 31% 30.30 in 10.0 mi NW 17.3 mph 20.7 mph N/A   Clear
11:55 PM 21.7 °F 11.5 °F -4.4 °F 32% 30.32 in 10.0 mi NNW 9.2 mph - N/A   Clear